Terminal Aerodrome Forecast
Issued by NWS

Home | Current Version | Previous Version | Text Only | Print | Product List | Glossary On
Versions: 1 2 3 4 5 6 7 8 9 10 11 12 13 14 15 16 17 18 19
240
FTUS46 KSTO 201133
TAFSCK
TAF
KSCK 201133Z 2012/2112 14022G32KT P6SM -RA BKN020 OVC040
      TEMPO 2012/2015 4SM RA
     FM201900 17014G20KT P6SM -SHRA OVC030
     FM210000 24015G21KT P6SM SHRA BKN040=

USA.gov is the U.S. government's official web portal to all federal, state and local government web resources and services.